Time,TemperatureF,DewpointF,PressureIn,WindDirection,WindDirectionDegrees,WindSpeedMPH,WindSpeedGustMPH,Humidity,HourlyPrecipIn,Conditions,Clouds,dailyrainin,SolarRadiationWatts/m^2,SoftwareType,DateUTC
2013-05-10 00:07:00,57.6,32.0,29.77,North,-999,-999.0,-999.0,29,0.00,,,-99.99,0.0,Linux-Irox,2013-05-10 07:07:00,
2013-05-10 00:17:00,57.4,32.2,29.77,North,-999,-999.0,-999.0,30,0.00,,,-99.99,0.0,Linux-Irox,2013-05-10 07:17:00,
2013-05-10 00:27:00,57.4,32.2,29.78,North,-999,-999.0,-999.0,30,0.00,,,-99.99,0.0,Linux-Irox,2013-05-10 07:27:00,
2013-05-10 00:37:00,57.2,32.0,29.78,North,-999,-999.0,-999.0,30,0.00,,,-99.99,0.0,Linux-Irox,2013-05-10 07:37:00,
2013-05-10 00:47:00,56.8,31.6,29.78,North,-999,-999.0,-999.0,30,0.00,,,-99.99,0.0,Linux-Irox,2013-05-10 07:47:00,
2013-05-10 00:57:00,56.7,31.5,29.78,North,-999,-999.0,-999.0,30,0.00,,,-99.99,0.0,Linux-Irox,2013-05-10 07:57:00,
2013-05-10 01:07:00,56.8,32.0,29.79,North,-999,-999.0,-999.0,31,0.00,,,-99.99,0.0,Linux-Irox,2013-05-10 08:07:00,
2013-05-10 01:17:00,56.8,31.6,29.79,North,-999,-999.0,-999.0,30,0.00,,,-99.99,0.0,Linux-Irox,2013-05-10 08:17:00,
2013-05-10 01:27:00,56.8,31.6,29.79,North,-999,-999.0,-999.0,30,0.00,,,-99.99,0.0,Linux-Irox,2013-05-10 08:27:00,
2013-05-10 01:37:00,56.8,31.6,29.79,North,-999,-999.0,-999.0,30,0.00,,,-99.99,0.0,Linux-Irox,2013-05-10 08:37:00,
2013-05-10 01:47:00,56.8,31.6,29.77,North,-999,-999.0,-999.0,30,0.00,,,-99.99,0.0,Linux-Irox,2013-05-10 08:47:00,
2013-05-10 01:57:00,56.8,32.7,29.77,North,-999,-999.0,-999.0,33,0.00,,,-99.99,0.0,Linux-Irox,2013-05-10 08:57:00,
2013-05-10 02:07:00,57.0,32.9,29.78,North,-999,-999.0,-999.0,33,0.00,,,-99.99,0.0,Linux-Irox,2013-05-10 09:07:00,
2013-05-10 02:17:00,56.8,33.4,29.78,North,-999,-999.0,-999.0,35,0.00,,,-99.99,0.0,Linux-Irox,2013-05-10 09:17:00,
2013-05-10 02:27:00,56.8,32.7,29.77,North,-999,-999.0,-999.0,33,0.00,,,-99.99,0.0,Linux-Irox,2013-05-10 09:27:00,
2013-05-10 02:37:00,56.5,32.7,29.77,North,-999,-999.0,-999.0,34,0.00,,,-99.99,0.0,Linux-Irox,2013-05-10 09:37:00,
2013-05-10 02:47:00,56.3,32.5,29.77,North,-999,-999.0,-999.0,34,0.00,,,-99.99,0.0,Linux-Irox,2013-05-10 09:47:00,
2013-05-10 02:57:00,56.3,34.0,29.77,North,-999,-999.0,-999.0,38,0.00,,,-99.99,0.0,Linux-Irox,2013-05-10 09:57:00,
2013-05-10 03:07:00,57.0,35.8,29.76,North,-999,-999.0,-999.0,41,0.00,,,-99.99,0.0,Linux-Irox,2013-05-10 10:07:00,
2013-05-10 03:17:00,56.7,35.1,29.76,North,-999,-999.0,-999.0,40,0.00,,,-99.99,0.0,Linux-Irox,2013-05-10 10:17:00,
2013-05-10 03:27:00,56.8,35.6,29.76,North,-999,-999.0,-999.0,41,0.00,,,-99.99,0.0,Linux-Irox,2013-05-10 10:27:00,
2013-05-10 03:37:00,56.8,35.2,29.76,North,-999,-999.0,-999.0,40,0.00,,,-99.99,0.0,Linux-Irox,2013-05-10 10:37:00,
2013-05-10 03:47:00,56.5,34.5,29.76,North,-999,-999.0,-999.0,39,0.00,,,-99.99,0.0,Linux-Irox,2013-05-10 10:47:00,
2013-05-10 03:57:00,56.3,34.3,29.76,North,-999,-999.0,-999.0,39,0.00,,,-99.99,0.0,Linux-Irox,2013-05-10 10:57:00,
2013-05-10 04:07:00,56.3,35.1,29.75,North,-999,-999.0,-999.0,41,0.00,,,-99.99,0.0,Linux-Irox,2013-05-10 11:07:00,
2013-05-10 04:17:00,55.9,34.0,29.75,North,-999,-999.0,-999.0,39,0.00,,,-99.99,0.0,Linux-Irox,2013-05-10 11:17:00,
2013-05-10 04:27:00,56.3,35.1,29.76,North,-999,-999.0,-999.0,41,0.00,,,-99.99,0.0,Linux-Irox,2013-05-10 11:27:00,
2013-05-10 04:37:00,56.1,34.5,29.76,North,-999,-999.0,-999.0,40,0.00,,,-99.99,0.0,Linux-Irox,2013-05-10 11:37:00,
2013-05-10 04:47:00,56.1,34.5,29.74,North,-999,-999.0,-999.0,40,0.00,,,-99.99,0.0,Linux-Irox,2013-05-10 11:47:00,
2013-05-10 04:57:00,56.1,34.5,29.74,North,-999,-999.0,-999.0,40,0.00,,,-99.99,0.0,Linux-Irox,2013-05-10 11:57:00,
2013-05-10 05:07:00,56.5,34.9,29.74,North,-999,-999.0,-999.0,40,0.00,,,-99.99,0.0,Linux-Irox,2013-05-10 12:07:00,
2013-05-10 05:17:00,56.7,35.1,29.74,North,-999,-999.0,-999.0,40,0.00,,,-99.99,0.0,Linux-Irox,2013-05-10 12:17:00,
2013-05-10 05:27:00,56.7,34.3,29.74,North,-999,-999.0,-999.0,38,0.00,,,-99.99,0.0,Linux-Irox,2013-05-10 12:27:00,
2013-05-10 05:37:00,56.5,33.8,29.74,North,-999,-999.0,-999.0,37,0.00,,,-99.99,0.0,Linux-Irox,2013-05-10 12:37:00,
2013-05-10 05:47:00,56.5,33.8,29.75,North,-999,-999.0,-999.0,37,0.00,,,-99.99,0.0,Linux-Irox,2013-05-10 12:47:00,
2013-05-10 05:57:00,56.3,33.6,29.75,North,-999,-999.0,-999.0,37,0.00,,,-99.99,0.0,Linux-Irox,2013-05-10 12:57:00,
2013-05-10 06:07:00,56.3,33.3,29.75,North,-999,-999.0,-999.0,36,0.00,,,-99.99,0.0,Linux-Irox,2013-05-10 13:07:00,
2013-05-10 06:16:00,56.1,32.7,29.75,North,-999,-999.0,-999.0,35,0.00,,,-99.99,0.0,Linux-Irox,2013-05-10 13:16:00,
2013-05-10 06:17:00,56.3,32.9,29.75,North,-999,-999.0,-999.0,35,0.00,,,-99.99,0.0,Linux-Irox,2013-05-10 13:17:00,
2013-05-10 06:27:00,56.3,32.9,29.76,North,-999,-999.0,-999.0,35,0.00,,,-99.99,0.0,Linux-Irox,2013-05-10 13:27:00,
2013-05-10 06:31:00,56.3,32.9,29.76,North,-999,-999.0,-999.0,35,0.00,,,-99.99,0.0,Linux-Irox,2013-05-10 13:31:00,
2013-05-10 06:37:00,56.3,32.9,29.76,North,-999,-999.0,-999.0,35,0.00,,,-99.99,0.0,Linux-Irox,2013-05-10 13:37:00,
2013-05-10 06:46:00,56.5,32.7,29.76,North,-999,-999.0,-999.0,34,0.00,,,-99.99,0.0,Linux-Irox,2013-05-10 13:46:00,
2013-05-10 06:47:00,56.5,32.7,29.76,North,-999,-999.0,-999.0,34,0.00,,,-99.99,0.0,Linux-Irox,2013-05-10 13:47:00,
2013-05-10 06:57:00,58.3,34.5,29.76,North,-999,-999.0,-999.0,34,0.00,,,-99.99,0.0,Linux-Irox,2013-05-10 13:57:00,
2013-05-10 07:01:00,61.3,37.9,29.76,North,-999,-999.0,-999.0,35,0.00,,,-99.99,0.0,Linux-Irox,2013-05-10 14:01:00,
2013-05-10 07:07:00,63.9,39.7,29.76,North,-999,-999.0,-999.0,33,0.00,,,-99.99,0.0,Linux-Irox,2013-05-10 14:07:00,
2013-05-10 07:16:00,66.4,38.7,29.76,North,-999,-999.0,-999.0,23,0.00,,,-99.99,0.0,Linux-Irox,2013-05-10 14:16:00,
2013-05-10 07:17:00,66.7,38.7,29.76,North,-999,-999.0,-999.0,22,0.00,,,-99.99,0.0,Linux-Irox,2013-05-10 14:17:00,
2013-05-10 07:27:00,68.2,36.5,29.74,North,-999,-999.0,-999.0,12,0.00,,,-99.99,0.0,Linux-Irox,2013-05-10 14:27:00,
2013-05-10 07:31:00,69.8,37.4,29.74,North,-999,-999.0,-999.0,10,0.00,,,-99.99,0.0,Linux-Irox,2013-05-10 14:31:00,
2013-05-10 07:37:00,70.0,35.8,29.74,North,-999,-999.0,-999.0,5,0.00,,,-99.99,0.0,Linux-Irox,2013-05-10 14:37:00,
2013-05-10 07:46:00,70.7,36.5,29.77,North,-999,-999.0,-999.0,5,0.00,,,-99.99,0.0,Linux-Irox,2013-05-10 14:46:00,
2013-05-10 07:47:00,70.0,35.8,29.77,North,-999,-999.0,-999.0,5,0.00,,,-99.99,0.0,Linux-Irox,2013-05-10 14:47:00,
2013-05-10 07:57:00,69.3,35.1,29.77,North,-999,-999.0,-999.0,5,0.00,,,-99.99,0.0,Linux-Irox,2013-05-10 14:57:00,
2013-05-10 08:01:00,68.5,34.3,29.77,North,-999,-999.0,-999.0,5,0.00,,,-99.99,0.0,Linux-Irox,2013-05-10 15:01:00,
2013-05-10 08:16:00,71.4,37.2,29.77,North,-999,-999.0,-999.0,5,0.00,,,-99.99,0.0,Linux-Irox,2013-05-10 15:16:00,
2013-05-10 08:31:00,75.4,41.2,29.77,North,-999,-999.0,-999.0,5,0.00,,,-99.99,0.0,Linux-Irox,2013-05-10 15:31:00,
2013-05-10 08:46:00,75.6,41.4,29.76,North,-999,-999.0,-999.0,5,0.00,,,-99.99,0.0,Linux-Irox,2013-05-10 15:46:00,
2013-05-10 09:01:00,72.1,37.9,29.74,North,-999,-999.0,-999.0,5,0.00,,,-99.99,0.0,Linux-Irox,2013-05-10 16:01:00,
2013-05-10 09:16:00,73.8,39.6,29.74,North,-999,-999.0,-999.0,5,0.00,,,-99.99,0.0,Linux-Irox,2013-05-10 16:16:00,
2013-05-10 09:31:00,73.4,39.2,29.73,North,-999,-999.0,-999.0,5,0.00,,,-99.99,0.0,Linux-Irox,2013-05-10 16:31:00,
2013-05-10 09:46:00,73.9,39.7,29.71,North,-999,-999.0,-999.0,5,0.00,,,-99.99,0.0,Linux-Irox,2013-05-10 16:46:00,
2013-05-10 10:01:00,73.8,39.6,29.70,North,-999,-999.0,-999.0,5,0.00,,,-99.99,0.0,Linux-Irox,2013-05-10 17:01:00,
2013-05-10 10:16:00,73.8,39.6,29.70,North,-999,-999.0,-999.0,5,0.00,,,-99.99,0.0,Linux-Irox,2013-05-10 17:16:00,
2013-05-10 10:31:00,75.6,41.4,29.70,North,-999,-999.0,-999.0,5,0.00,,,-99.99,0.0,Linux-Irox,2013-05-10 17:31:00,
2013-05-10 10:46:00,76.5,42.3,29.70,North,-999,-999.0,-999.0,5,0.00,,,-99.99,0.0,Linux-Irox,2013-05-10 17:46:00,
2013-05-10 11:01:00,76.3,42.1,29.70,North,-999,-999.0,-999.0,5,0.00,,,-99.99,0.0,Linux-Irox,2013-05-10 18:01:00,
2013-05-10 11:16:00,76.8,42.6,29.70,North,-999,-999.0,-999.0,5,0.00,,,-99.99,0.0,Linux-Irox,2013-05-10 18:16:00,
2013-05-10 11:31:00,77.0,42.8,29.70,North,-999,-999.0,-999.0,5,0.00,,,-99.99,0.0,Linux-Irox,2013-05-10 18:31:00,
2013-05-10 11:46:00,76.8,42.6,29.70,North,-999,-999.0,-999.0,5,0.00,,,-99.99,0.0,Linux-Irox,2013-05-10 18:46:00,
2013-05-10 12:01:00,78.3,44.1,29.70,North,-999,-999.0,-999.0,5,0.00,,,-99.99,0.0,Linux-Irox,2013-05-10 19:01:00,
2013-05-10 12:16:00,78.1,43.9,29.70,North,-999,-999.0,-999.0,5,0.00,,,-99.99,0.0,Linux-Irox,2013-05-10 19:16:00,
2013-05-10 12:31:00,78.3,44.1,29.70,North,-999,-999.0,-999.0,5,0.00,,,-99.99,0.0,Linux-Irox,2013-05-10 19:31:00,
2013-05-10 12:46:00,78.4,44.2,29.70,North,-999,-999.0,-999.0,5,0.00,,,-99.99,0.0,Linux-Irox,2013-05-10 19:46:00,
2013-05-10 13:01:00,78.3,44.1,29.70,North,-999,-999.0,-999.0,5,0.00,,,-99.99,0.0,Linux-Irox,2013-05-10 20:01:00,
2013-05-10 13:16:00,78.1,43.9,29.70,North,-999,-999.0,-999.0,5,0.00,,,-99.99,0.0,Linux-Irox,2013-05-10 20:16:00,
2013-05-10 13:31:00,78.3,44.1,29.69,North,-999,-999.0,-999.0,5,0.00,,,-99.99,0.0,Linux-Irox,2013-05-10 20:31:00,
2013-05-10 13:46:00,78.3,44.1,29.70,North,-999,-999.0,-999.0,5,0.00,,,-99.99,0.0,Linux-Irox,2013-05-10 20:46:00,
2013-05-10 14:01:00,78.6,44.4,29.70,North,-999,-999.0,-999.0,5,0.00,,,-99.99,0.0,Linux-Irox,2013-05-10 21:01:00,
2013-05-10 14:16:00,79.2,45.0,29.70,North,-999,-999.0,-999.0,5,0.00,,,-99.99,0.0,Linux-Irox,2013-05-10 21:16:00,
2013-05-10 14:31:00,79.7,45.5,29.69,North,-999,-999.0,-999.0,5,0.00,,,-99.99,0.0,Linux-Irox,2013-05-10 21:31:00,
2013-05-10 14:46:00,80.6,46.4,29.69,North,-999,-999.0,-999.0,5,0.00,,,-99.99,0.0,Linux-Irox,2013-05-10 21:46:00,
2013-05-10 15:01:00,80.6,46.4,29.69,North,-999,-999.0,-999.0,5,0.00,,,-99.99,0.0,Linux-Irox,2013-05-10 22:01:00,
2013-05-10 15:16:00,81.0,46.8,29.69,North,-999,-999.0,-999.0,5,0.00,,,-99.99,0.0,Linux-Irox,2013-05-10 22:16:00,
2013-05-10 15:31:00,80.4,46.2,29.68,North,-999,-999.0,-999.0,5,0.00,,,-99.99,0.0,Linux-Irox,2013-05-10 22:31:00,
2013-05-10 15:46:00,79.7,45.5,29.68,North,-999,-999.0,-999.0,5,0.00,,,-99.99,0.0,Linux-Irox,2013-05-10 22:46:00,
2013-05-10 16:01:00,79.9,45.7,29.69,North,-999,-999.0,-999.0,5,0.00,,,-99.99,0.0,Linux-Irox,2013-05-10 23:01:00,
2013-05-10 16:16:00,79.5,45.3,29.69,North,-999,-999.0,-999.0,5,0.00,,,-99.99,0.0,Linux-Irox,2013-05-10 23:16:00,
2013-05-10 16:31:00,79.9,45.7,29.69,North,-999,-999.0,-999.0,5,0.00,,,-99.99,0.0,Linux-Irox,2013-05-10 23:31:00,
2013-05-10 16:46:00,79.5,45.3,29.67,North,-999,-999.0,-999.0,5,0.00,,,-99.99,0.0,Linux-Irox,2013-05-10 23:46:00,
2013-05-10 17:01:00,79.3,45.1,29.69,North,-999,-999.0,-999.0,5,0.00,,,-99.99,0.0,Linux-Irox,2013-05-11 00:01:00,
2013-05-10 17:16:00,78.6,44.4,29.69,North,-999,-999.0,-999.0,5,0.00,,,-99.99,0.0,Linux-Irox,2013-05-11 00:16:00,
2013-05-10 17:31:00,77.7,43.5,29.70,North,-999,-999.0,-999.0,5,0.00,,,-99.99,0.0,Linux-Irox,2013-05-11 00:31:00,
2013-05-10 17:46:00,77.2,43.0,29.70,North,-999,-999.0,-999.0,5,0.00,,,-99.99,0.0,Linux-Irox,2013-05-11 00:46:00,
2013-05-10 18:01:00,76.6,42.4,29.69,North,-999,-999.0,-999.0,5,0.00,,,-99.99,0.0,Linux-Irox,2013-05-11 01:01:00,
2013-05-10 18:16:00,76.1,41.9,29.69,North,-999,-999.0,-999.0,5,0.00,,,-99.99,0.0,Linux-Irox,2013-05-11 01:16:00,
2013-05-10 18:31:00,75.7,41.5,29.67,North,-999,-999.0,-999.0,5,0.00,,,-99.99,0.0,Linux-Irox,2013-05-11 01:31:00,
2013-05-10 18:46:00,75.0,40.8,29.69,North,-999,-999.0,-999.0,5,0.00,,,-99.99,0.0,Linux-Irox,2013-05-11 01:46:00,
2013-05-10 19:01:00,73.9,39.7,29.69,North,-999,-999.0,-999.0,5,0.00,,,-99.99,0.0,Linux-Irox,2013-05-11 02:01:00,
2013-05-10 19:16:00,72.7,38.5,29.69,North,-999,-999.0,-999.0,5,0.00,,,-99.99,0.0,Linux-Irox,2013-05-11 02:16:00,
2013-05-10 19:31:00,71.8,37.6,29.66,North,-999,-999.0,-999.0,5,0.00,,,-99.99,0.0,Linux-Irox,2013-05-11 02:31:00,
2013-05-10 19:46:00,70.2,36.0,29.67,North,-999,-999.0,-999.0,5,0.00,,,-99.99,0.0,Linux-Irox,2013-05-11 02:46:00,
2013-05-10 20:01:00,69.1,34.9,29.68,North,-999,-999.0,-999.0,5,0.00,,,-99.99,0.0,Linux-Irox,2013-05-11 03:01:00,
2013-05-10 20:16:00,68.2,34.0,29.68,North,-999,-999.0,-999.0,5,0.00,,,-99.99,0.0,Linux-Irox,2013-05-11 03:16:00,
2013-05-10 20:31:00,67.3,33.4,29.69,North,-999,-999.0,-999.0,6,0.00,,,-99.99,0.0,Linux-Irox,2013-05-11 03:31:00,
2013-05-10 20:46:00,66.7,32.9,29.71,North,-999,-999.0,-999.0,6,0.00,,,-99.99,0.0,Linux-Irox,2013-05-11 03:46:00,
2013-05-10 21:01:00,66.7,34.3,29.73,North,-999,-999.0,-999.0,10,0.00,,,-99.99,0.0,Linux-Irox,2013-05-11 04:01:00,
2013-05-10 21:16:00,66.2,34.5,29.73,North,-999,-999.0,-999.0,12,0.00,,,-99.99,0.0,Linux-Irox,2013-05-11 04:16:00,
2013-05-10 21:32:00,65.8,34.5,29.74,North,-999,-999.0,-999.0,13,0.00,,,-99.99,0.0,Linux-Irox,2013-05-11 04:32:00,
2013-05-10 21:46:00,65.5,34.2,29.75,North,-999,-999.0,-999.0,13,0.00,,,-99.99,0.0,Linux-Irox,2013-05-11 04:46:00,